Le nostre stazioni meteo in Italia

Pubblicità
Il mio iltempo24.it
Capo Mele, Italia (16153): Temperatura & dewpoint: 16.11.2019 08:00:00 - 22.11.2019 08:00:00 (CET)Capo Mele, Italia (16153): velocità del vento: 16.11.2019 08:00:00 - 22.11.2019 08:00:00 (CET)Capo Mele, Italia (16153): direzione del vento: 16.11.2019 08:00:00 - 22.11.2019 08:00:00 (CET)Capo Mele, Italia (16153): reduced air pressure: 16.11.2019 08:00:00 - 22.11.2019 08:00:00 (CET)Capo Mele, Italia (16153): visibility: 16.11.2019 08:00:00 - 22.11.2019 08:00:00 (CET)Capo Mele, Italia (16153): ore di luce: 16.11.2019 08:00:00 - 22.11.2019 08:00:00 (CET)
Data & Tempo tt [°C] td [°C] ff [km/h] ff [kn] dd ppp [hPa] vv [km] sd [min]
22.11.2019 08:00:00 - - - - - - - -
22.11.2019 07:00:00 9,6 7,7 11 6 N 1010,9 10 -
22.11.2019 06:00:00 10,0 9,1 9 5 N 1010,9 10 -
22.11.2019 05:00:00 10,0 9,4 16 9 N 1010,9 6 -
22.11.2019 04:00:00 10,0 9,5 15 8 N 1011,0 7 -
22.11.2019 03:00:00 10,0 8,6 15 8 N 1011,3 8 -
22.11.2019 02:00:00 10,4 6,7 15 8 N 1011,3 8 -
22.11.2019 01:00:00 11,0 6,9 15 8 N 1011,6 10 -
22.11.2019 00:00:00 11,0 7,1 13 7 NNE 1011,9 20 -
21.11.2019 23:00:00 11,0 6,9 15 8 NNE 1011,7 20 -
21.11.2019 22:00:00 11,0 7,1 15 8 NNE 1011,7 20 -
21.11.2019 21:00:00 11,0 8,4 8 4 NE 1011,5 20 -
21.11.2019 20:00:00 11,0 9,1 9 5 NE 1011,4 30 -
21.11.2019 19:00:00 11,0 7,5 9 5 NNE 1011,4 30 -
21.11.2019 18:00:00 11,0 7,7 5 3 NNE 1011,3 25 -
21.11.2019 17:00:00 11,8 9,0 5 3 NE 1011,3 25 12
21.11.2019 16:00:00 14,2 10,0 9 5 NNE 1011,1 25 30
21.11.2019 15:00:00 14,8 11,0 9 5 N 1011,0 25 0
21.11.2019 14:00:00 11,2 9,5 9 5 ONO 1011,4 20 0
21.11.2019 13:00:00 10,8 7,7 15 8 O 1011,5 25 0
21.11.2019 12:00:00 12,8 7,5 5 3 ONO 1012,2 30 24
21.11.2019 11:00:00 13,2 8,1 9 5 NE 1012,1 30 18
21.11.2019 10:00:00 12,8 7,1 9 5 NE 1012,1 20 0
21.11.2019 09:00:00 11,2 5,9 9 5 NE 1011,9 20 0
21.11.2019 08:00:00 11,0 5,7 5 3 NNE 1011,8 15 0
21.11.2019 07:00:00 11,0 5,5 5 3 NE 1012,0 15 -
21.11.2019 06:00:00 10,0 5,2 8 4 N 1012,3 15 -
21.11.2019 05:00:00 10,0 5,6 8 4 N 1012,3 15 -
21.11.2019 04:00:00 10,0 5,8 5 3 ESE 1012,3 15 -
21.11.2019 03:00:00 10,0 6,5 5 3 ESE 1012,3 15 -
21.11.2019 02:00:00 10,2 8,3 5 3 ESE 1012,5 15 -
21.11.2019 01:00:00 10,2 8,1 5 3 E 1012,5 15 -
21.11.2019 00:00:00 10,6 9,0 5 3 NNE 1013,0 15 -
20.11.2019 23:00:00 10,8 8,7 4 2 NE 1013,3 15 -
20.11.2019 22:00:00 11,0 9,1 5 3 NNE 1013,0 15 -
20.11.2019 21:00:00 10,8 10,0 5 3 N 1013,1 15 -
20.11.2019 20:00:00 10,8 9,9 0 0 N 1013,0 10 -
20.11.2019 19:00:00 11,0 10,2 0 0 N 1012,9 10 -
20.11.2019 18:00:00 11,0 9,9 0 0 N 1012,9 8 0
20.11.2019 17:00:00 11,4 10,5 0 0 N 1012,9 8 0
20.11.2019 16:00:00 11,8 11,4 8 4 NNE 1012,9 8 0
20.11.2019 15:00:00 12,0 11,9 16 9 S 1012,9 8 0
20.11.2019 14:00:00 14,4 8,6 8 4 NNO 1012,9 40 0
20.11.2019 13:00:00 14,8 9,0 8 4 NNO 1013,0 50 0
20.11.2019 12:00:00 14,4 9,2 5 3 NNO 1013,2 50 18
20.11.2019 11:00:00 14,4 8,6 11 6 NNO 1013,2 30 18
20.11.2019 10:00:00 13,0 8,3 15 8 N 1013,3 20 0
20.11.2019 09:00:00 12,4 7,5 13 7 NNO 1013,3 30 0
20.11.2019 08:00:00 12,0 7,7 15 8 N 1013,3 30 0
20.11.2019 07:00:00 12,0 7,9 11 6 NO 1013,3 20 -
20.11.2019 06:00:00 12,0 7,5 15 8 N 1013,3 20 -
20.11.2019 05:00:00 12,0 7,3 11 6 N 1013,3 20 -
20.11.2019 04:00:00 11,6 7,5 15 8 ONO 1013,4 20 -
20.11.2019 03:00:00 11,2 7,5 11 6 NO 1013,4 20 -
20.11.2019 02:00:00 11,0 6,9 9 5 NNO 1013,4 20 -
20.11.2019 01:00:00 10,2 8,3 11 6 NNO 1013,6 20 -
20.11.2019 00:00:00 10,0 7,1 15 8 N 1013,6 15 -
19.11.2019 23:00:00 11,8 5,7 15 8 N 1013,3 20 -
19.11.2019 22:00:00 12,2 5,1 18 10 N 1013,1 25 -
19.11.2019 21:00:00 12,2 5,4 15 8 N 1013,0 25 -
19.11.2019 20:00:00 12,0 5,2 15 8 N 1013,0 25 -
19.11.2019 19:00:00 12,0 4,5 15 8 N 1012,3 20 -
19.11.2019 18:00:00 11,8 4,3 15 8 N 1012,0 20 0
19.11.2019 17:00:00 12,0 4,2 16 9 N 1011,5 20 0
19.11.2019 16:00:00 12,0 4,5 15 8 N 1011,2 20 0
19.11.2019 15:00:00 13,0 5,2 16 9 N 1010,3 20 18
19.11.2019 14:00:00 13,0 4,9 22 12 N 1010,1 20 24
19.11.2019 13:00:00 12,0 5,0 22 12 N 1010,3 20 6
19.11.2019 12:00:00 11,2 4,0 26 14 N 1010,8 15 0
19.11.2019 11:00:00 11,0 3,5 24 13 N 1010,5 15 0
19.11.2019 10:00:00 10,8 3,8 24 13 N 1010,2 15 0
19.11.2019 09:00:00 10,4 3,2 29 16 N 1009,3 15 0
19.11.2019 08:00:00 9,4 3,2 18 10 NO 1009,0 10 0
19.11.2019 07:00:00 8,8 3,8 28 15 NO 1008,0 10 -
19.11.2019 06:00:00 8,8 4,2 28 15 NNO 1009,5 10 -
19.11.2019 05:00:00 8,4 3,7 34 18 N 1009,1 12 -
19.11.2019 04:00:00 8,2 4,2 37 20 NNO 1010,1 12 -
19.11.2019 03:00:00 8,0 4,2 37 20 ONO 1010,4 12 -
19.11.2019 02:00:00 6,8 6,4 46 25 NNO 1010,7 12 -
19.11.2019 01:00:00 7,0 6,4 46 25 N 1010,8 12 -
19.11.2019 00:00:00 7,0 6,4 37 20 N 1011,7 12 -
18.11.2019 23:00:00 7,2 6,3 41 22 N 1011,6 12 -
18.11.2019 22:00:00 7,4 5,9 46 25 N 1011,5 12 -
18.11.2019 21:00:00 7,8 6,3 46 25 N 1011,5 15 -
18.11.2019 20:00:00 7,6 5,7 15 8 N 1011,5 20 -
18.11.2019 19:00:00 7,0 5,2 11 6 N 1011,8 20 -
18.11.2019 18:00:00 7,0 6,5 15 8 NNO 1011,5 20 -
18.11.2019 17:00:00 7,0 5,5 15 8 NNO 1012,1 20 -
18.11.2019 16:00:00 8,8 5,0 15 8 OSO 1012,5 20 0
18.11.2019 15:00:00 10,0 4,0 15 8 N 1011,6 20 0
18.11.2019 14:00:00 10,0 3,7 11 6 N 1011,4 20 0
18.11.2019 13:00:00 10,8 4,3 15 8 N 1011,4 30 0
18.11.2019 12:00:00 10,0 4,2 15 8 N 1012,8 20 0
18.11.2019 11:00:00 10,0 4,8 8 4 NNE 1012,5 30 0
18.11.2019 10:00:00 8,8 4,4 11 6 NNE 1010,8 30 0
18.11.2019 09:00:00 8,2 4,2 8 4 NNE 1010,6 30 0
18.11.2019 08:00:00 8,0 4,4 8 4 N 1009,9 35 0
18.11.2019 07:00:00 8,0 4,2 4 2 N 1008,9 35 -
18.11.2019 06:00:00 8,0 3,8 0 0 N 1008,6 40 -
18.11.2019 05:00:00 8,0 3,8 0 0 N 1007,6 40 -
18.11.2019 04:00:00 8,0 3,3 0 0 N 1007,5 20 -
18.11.2019 03:00:00 8,0 3,7 0 0 N 1006,9 40 -
18.11.2019 02:00:00 8,0 4,4 0 0 N 1006,8 40 -
18.11.2019 01:00:00 8,2 5,0 4 2 SO 1006,7 40 -
18.11.2019 00:00:00 8,2 4,8 8 4 SO 1006,5 40 -
17.11.2019 23:00:00 8,4 4,8 9 5 SO 1005,8 40 -
17.11.2019 22:00:00 8,6 4,8 8 4 SO 1005,4 40 -
17.11.2019 21:00:00 9,0 4,4 9 5 SO 1003,5 40 -
17.11.2019 20:00:00 9,6 5,0 28 15 OSO 1004,2 30 -
17.11.2019 19:00:00 9,8 5,2 18 10 SO 1003,4 30 -
17.11.2019 18:00:00 10,0 4,8 11 6 SSE 1002,4 30 0
17.11.2019 17:00:00 11,0 4,5 9 5 S 1002,3 30 12
17.11.2019 16:00:00 11,8 5,9 18 10 SSE 1002,2 30 54
17.11.2019 15:00:00 14,0 7,4 67 36 NNE 1001,6 20 60
17.11.2019 14:00:00 12,8 6,8 18 10 S 1001,5 20 42
17.11.2019 13:00:00 11,8 6,9 26 14 S 1001,5 30 36
17.11.2019 12:00:00 12,2 7,7 28 15 S 1001,1 20 -
17.11.2019 11:00:00 12,4 5,6 9 5 NNE 1001,1 20 0
17.11.2019 10:00:00 10,0 3,3 9 5 NNE 1001,3 20 0
17.11.2019 09:00:00 8,0 2,3 18 10 NNE 1001,2 10 0
17.11.2019 08:00:00 8,8 4,6 22 12 NNE 1001,4 4,0 0
17.11.2019 07:00:00 9,0 3,0 22 12 NNE 1001,4 4,0 -
17.11.2019 06:00:00 9,0 2,6 28 15 NNE 1001,4 4,0 -
17.11.2019 05:00:00 10,0 2,6 28 15 NE 1002,3 4,0 -
17.11.2019 04:00:00 10,0 1,4 37 20 ENE 1002,3 20 -
17.11.2019 03:00:00 10,0 1,6 29 16 NE 1002,3 20 -
17.11.2019 02:00:00 10,0 1,4 28 15 NNE 1005,2 20 -
17.11.2019 01:00:00 10,0 1,6 29 16 NE 1006,2 20 -
17.11.2019 00:00:00 10,0 1,1 29 16 NNE 1007,2 20 -
16.11.2019 23:00:00 10,0 0,9 34 18 NNE 1007,4 20 -
16.11.2019 22:00:00 10,0 0,6 28 15 NNE 1007,6 20 -
16.11.2019 21:00:00 9,6 1,0 22 12 N 1007,7 20 -
16.11.2019 20:00:00 9,4 4,4 26 14 NNE 1008,8 20 -
16.11.2019 19:00:00 9,6 2,5 18 10 NNE 1010,4 20 -
16.11.2019 18:00:00 10,0 4,0 15 8 N - 10 -
16.11.2019 17:00:00 10,6 5,6 11 6 N 1010,8 20 0
16.11.2019 16:00:00 12,2 6,3 11 6 N 1011,0 20 0
16.11.2019 15:00:00 - - - - - - - -
16.11.2019 14:00:00 13,2 7,9 5 3 NNE 1011,2 35 54
16.11.2019 13:00:00 14,2 8,8 4 2 N 1011,3 35 60
16.11.2019 12:00:00 14,8 9,4 4 2 NNE 1011,2 35 60
16.11.2019 11:00:00 13,8 8,6 4 2 NNE 1011,1 35 60
16.11.2019 10:00:00 11,2 8,8 4 2 N 1010,7 10 54
16.11.2019 09:00:00 9,0 6,0 4 2 N - 10 -
16.11.2019 08:00:00 8,8 7,3 8 4 ONO 1009,5 20 0

tt = Temperatura
td = dewpoint
ff = velocità del vento
dd = direzione del vento
ppp = reduced air pressure
vv = visibility
sd = ore di luce

Stazioni seguenti

WeatherPro
AMSI
MeteoEarth